This is the latest recevied weather packets stored in our database for station/object YO6FNF-10. If no packets are shown the sender has not sent any weather packets the latest 10 day(s).
| Time | Temp. | Humidity | Pressure | Rain* | Wind** | Luminosity | Snow |
|---|---|---|---|---|---|---|---|
| 1777861571 | 5° C | 69% | 1020.6 hPa | - | - | - | - |
| 1777860671 | 5° C | 66% | 1020.6 hPa | - | - | - | - |
| 1777859771 | 5° C | 67% | 1020.7 hPa | - | - | - | - |
| 1777858870 | 5° C | 66% | 1020.7 hPa | - | - | - | - |
| 1777857970 | 5° C | 66% | 1020.6 hPa | - | - | - | - |
| 1777857070 | 5° C | 66% | 1020.5 hPa | - | - | - | - |
| 1777856170 | 5.56° C | 67% | 1020.4 hPa | - | - | - | - |
| 1777855270 | 6.11° C | 65% | 1020.4 hPa | - | - | - | - |
| 1777854370 | 6.67° C | 62% | 1020.2 hPa | - | - | - | - |
| 1777853469 | 6.67° C | 64% | 1020.3 hPa | - | - | - | - |
| 1777852569 | 7.22° C | 62% | 1020.1 hPa | - | - | - | - |
| 1777851669 | 7.78° C | 60% | 1020.1 hPa | - | - | - | - |
| 1777850769 | 8.33° C | 58% | 1020.1 hPa | - | - | - | - |
| 1777849869 | 8.33° C | 58% | 1020 hPa | - | - | - | - |
| 1777848968 | 8.89° C | 55% | 1020.1 hPa | - | - | - | - |
| 1777848068 | 8.89° C | 55% | 1020.2 hPa | - | - | - | - |
| 1777847168 | 8.89° C | 55% | 1020.4 hPa | - | - | - | - |
| 1777846268 | 8.89° C | 55% | 1020.4 hPa | - | - | - | - |
| 1777845368 | 9.44° C | 54% | 1020.6 hPa | - | - | - | - |
| 1777844467 | 9.44° C | 51% | 1020.7 hPa | - | - | - | - |
| 1777843567 | 10° C | 52% | 1020.7 hPa | - | - | - | - |
| 1777842667 | 10.56° C | 51% | 1020.7 hPa | - | - | - | - |
| 1777841767 | 10.56° C | 47% | 1020.7 hPa | - | - | - | - |
| 1777840867 | 10.56° C | 46% | 1020.8 hPa | - | - | - | - |
| 1777839967 | 11.11° C | 40% | 1020.7 hPa | - | - | - | - |
* Rain since midnight (hover to see other rain measurements)
** Current wind speed in m/s (hover to see current wind gust speed)